Home   Weather   Concord   Past weeks

Flag for USA Past Weather in Concord, California, USA — Yesterday and Last 2 Weeks

Now
57 °F

Clear.


Feels Like: 55 °F
Forecast: 53 / 62 °F
Wind: 10 mph from Southwest

Location: Buchanan Field

Current Time: Apr 23, 2017 at 11:02:55 pm

Latest Report: Apr 23, 2017 at 9:53 pm


Visibility: 10 mi

Pressure: 29.97 "Hg

Humidity: 64%

Dew Point: 45 °F

Location of ConcordLocation

Past Weather in Concord — Graph

°F

Concord Temperature Yesterday

Maximum temperature yesterday: 69 °F (at 1:53 pm)
Minimum temperature yesterday: 52 °F (at 5:53 am)
Average temperature yesterday: 60 °F

High & Low Weather Summary for the Past Weeks

 TemperatureHumidityPressure
High78 °F (Apr 21, 3:53 pm)100% (Apr 17, 2:17 am)30.29 "Hg (Apr 17, 2:17 am)
Low41 °F (Apr 9, 6:53 am)26% (Apr 9, 5:53 pm)29.84 "Hg (Apr 12, 6:53 pm)
Average58 °F71%30.04 "Hg
* Reported Apr 8 9:53 pm — Apr 23 9:53 pm, Concord, Weather by CustomWeather, © 2017

Note: Actual official high and low records may vary slightly from our data, if they occured in-between our weather recording intervals... More about our weather records

Advertising

Concord Weather History for the Previous 24 Hours

Scroll right to see more
 ConditionsComfort  
Time TempWeatherWind HumidityBarometerVisibility
9:53 pm
Sun, Apr 23
57 °FClear.10 mph64%29.97 "Hg10 mi
8:53 pm57 °FClear.12 mph64%29.96 "Hg10 mi
7:53 pm60 °FClear.12 mph60%29.95 "Hg10 mi
6:53 pm63 °FSunny.14 mph54%29.94 "Hg10 mi
5:53 pm65 °FSunny.17 mph51%29.95 "Hg10 mi
4:53 pm67 °FSunny.20 mph47%29.93 "Hg10 mi
3:53 pm69 °FSunny.15 mph47%29.93 "Hg10 mi
2:53 pm70 °FSunny.16 mph47%29.96 "Hg10 mi
1:53 pm70 °FSunny.13 mph41%29.96 "Hg10 mi
12:53 pm69 °FSunny.10 mph42%29.96 "Hg10 mi
11:53 am67 °FSunny.14 mph45%29.97 "Hg10 mi
10:53 am64 °FSunny.12 mph49%29.96 "Hg10 mi
9:53 am61 °FSunny.12 mph54%29.95 "Hg10 mi
8:53 am59 °FSunny.7 mph58%29.95 "Hg10 mi
7:53 am56 °FScattered clouds.3 mph65%29.95 "Hg10 mi
6:53 am53 °FPartly sunny.5 mph72%29.94 "Hg10 mi
5:53 am54 °FClear.10 mph69%29.93 "Hg10 mi
4:53 am55 °FClear.7 mph69%29.92 "Hg10 mi
3:53 am55 °FClear.9 mph69%29.93 "Hg10 mi
2:53 am54 °FClear.8 mph72%29.92 "Hg10 mi
1:53 am54 °FClear.6 mph72%29.93 "Hg10 mi
12:53 am54 °FClear.6 mph69%29.94 "Hg10 mi
11:53 pm
Sat, Apr 22
55 °FClear.10 mph69%29.94 "Hg10 mi
Weather by CustomWeather, © 2017

See weather overviewHow to use our weather pages